DW5785 Weather Reports


Display with metric or nautical units.
time (UTC)temp
F
wind
direction
speed
MPH
gust
MPH
rain 1hr
in
rain 24hr
in
rain mn
in
humidity
%
barometer
mb
20220525221602 59 166 9.0 13.0 0.00 0.03 0.00 73 1019.2
20220525221100 59 143 7.0 14.0 0.00 0.03 0.00 73 1019.1
20220525220602 59 151 5.0 12.0 0.00 0.03 0.00 73 1019.1
20220525220105 59 166 8.0 11.0 0.00 0.03 0.00 73 1019.1
20220525215602 59 188 10.0 12.0 0.00 0.03 0.00 73 1019.1
20220525215100 59 148 9.0 11.0 0.00 0.03 0.00 73 1019.0
20220525214602 60 141 9.0 12.0 0.00 0.03 0.00 73 1019.0
20220525214059 60 83 6.0 13.0 0.00 0.03 0.00 73 1018.9
20220525213606 60 151 7.0 13.0 0.00 0.03 0.00 72 1018.8
20220525213106 60 191 10.0 15.0 0.00 0.03 0.00 72 1018.8
20220525212559 60 162 8.0 14.0 0.00 0.03 0.00 72 1018.8
20220525212102 60 158 6.0 12.0 0.00 0.03 0.00 72 1018.7
20220525211559 60 124 5.0 11.0 0.00 0.03 0.00 72 1018.7
20220525211101 60 159 8.0 13.0 0.00 0.03 0.00 72 1018.7
20220525210604 60 148 10.0 12.0 0.00 0.03 0.00 72 1018.7
20220525210101 60 155 5.0 12.0 0.00 0.03 0.00 72 1018.6
20220525205603 60 147 6.0 12.0 0.00 0.03 0.00 71 1018.6
20220525205101 60 202 5.0 13.0 0.00 0.03 0.00 71 1018.6
20220525204606 60 150 8.0 12.0 0.00 0.03 0.00 71 1018.6
20220525204103 60 181 11.0 12.0 0.00 0.03 0.00 71 1018.6
20220525203559 60 170 6.0 11.0 0.00 0.03 0.00 70 1018.6
20220525203100 60 121 6.0 11.0 0.00 0.03 0.00 70 1018.6
20220525202559 60 178 9.0 11.0 0.00 0.03 0.00 69 1018.5
20220525202059 60 182 6.0 9.0 0.00 0.03 0.00 69 1018.5
20220525201600 60 174 5.0 12.0 0.00 0.03 0.00 69 1018.5
20220525201059 60 146 8.0 11.0 0.00 0.03 0.00 68 1018.5
20220525200603 60 134 9.0 12.0 0.00 0.03 0.00 68 1018.5
20220525200059 61 149 5.0 10.0 0.00 0.03 0.00 67 1018.4
20220525195600 61 168 4.0 9.0 0.00 0.03 0.00 67 1018.4
20220525195059 61 185 7.0 9.0 0.00 0.03 0.00 66 1018.3
20220525194602 61 181 6.0 9.0 0.00 0.03 0.00 65 1018.2
20220525194101 61 164 5.0 9.0 0.00 0.03 0.00 65 1018.1
20220525193559 62 155 7.0 9.0 0.00 0.03 0.00 64 1018.1
20220525193059 62 158 3.0 9.0 0.00 0.03 0.00 64 1018.0
20220525192602 62 149 6.0 9.0 0.00 0.03 0.00 63 1017.9
20220525192100 62 169 3.0 8.0 0.00 0.03 0.00 63 1017.8
20220525191559 62 133 4.0 7.0 0.00 0.03 0.00 62 1017.8
20220525191102 62 178 4.0 8.0 0.00 0.03 0.00 61 1017.7
20220525190602 63 170 4.0 8.0 0.00 0.03 0.00 61 1017.7
20220525190105 63 241 2.0 9.0 0.00 0.03 0.00 61 1017.6
20220525185601 63 168 3.0 9.0 0.00 0.03 0.00 61 1017.5
20220525185102 63 118 4.0 10.0 0.00 0.03 0.00 60 1017.5
20220525184559 63 176 4.0 8.0 0.00 0.03 0.00 60 1017.5
20220525184101 64 220 3.0 6.0 0.00 0.03 0.00 60 1017.4
20220525183600 64 166 5.0 8.0 0.00 0.03 0.00 59 1017.4
20220525183102 64 153 4.0 7.0 0.00 0.03 0.00 59 1017.3
20220525182601 65 161 7.0 13.0 0.00 0.03 0.00 59 1017.3
20220525182059 65 166 3.0 4.0 0.00 0.03 0.00 58 1017.3
20220525181559 65 158 1.0 8.0 0.00 0.03 0.00 57 1017.3
20220525181059 65 129 3.0 7.0 0.00 0.03 0.00 56 1017.2
20220525180559 65 100 9.0 10.0 0.00 0.03 0.00 55 1017.2
20220525180102 66 131 3.0 7.0 0.00 0.03 0.00 54 1017.2
20220525175559 66 162 5.0 11.0 0.00 0.03 0.00 54 1017.2
20220525175102 66 77 7.0 10.0 0.00 0.03 0.00 53 1017.1
20220525174602 66 158 5.0 11.0 0.00 0.03 0.00 53 1017.1
20220525174059 66 118 5.0 8.0 0.00 0.03 0.00 53 1017.0
20220525173606 66 143 4.0 9.0 0.00 0.03 0.00 53 1017.0
20220525173059 66 104 4.0 13.0 0.00 0.03 0.00 52 1016.9
20220525172605 66 156 6.0 12.0 0.00 0.03 0.00 51 1016.9
20220525172102 67 187 3.0 11.0 0.00 0.03 0.00 51 1016.9
20220525171559 67 153 5.0 9.0 0.00 0.03 0.00 50 1016.9
20220525171103 66 162 7.0 14.0 0.00 0.03 0.00 50 1016.8
20220525170559 66 118 6.0 12.0 0.00 0.03 0.00 49 1016.8
20220525170059 67 163 6.0 9.0 0.00 0.03 0.00 50 1016.8
20220525165600 67 133 5.0 13.0 0.00 0.03 0.00 49 1016.8
20220525165059 67 130 7.0 11.0 0.00 0.03 0.00 50 1016.7
20220525164600 67 189 12.0 12.0 0.00 0.03 0.00 50 1016.7
20220525164059 67 150 1.0 11.0 0.00 0.03 0.00 50 1016.8
20220525163559 66 196 3.0 6.0 0.00 0.03 0.00 55 1016.6
20220525163059 66 100 5.0 8.0 0.00 0.03 0.00 56 1016.7
20220525162559 66 70 7.0 10.0 0.00 0.03 0.00 58 1016.7
20220525162104 66 97 8.0 8.0 0.00 0.03 0.00 58 1016.7
20220525161603 66 95 4.0 9.0 0.00 0.03 0.00 58 1016.6
20220525161102 66 95 2.0 10.0 0.00 0.03 0.00 58 1016.7
20220525160600 66 73 10.0 11.0 0.00 0.03 0.00 58 1016.7
20220525160059 66 104 10.0 10.0 0.00 0.03 0.00 58 1016.7
20220525155602 66 131 6.0 11.0 0.00 0.03 0.00 59 1016.6
20220525155106 66 127 5.0 13.0 0.00 0.04 0.00 59 1016.7
20220525154559 66 132 9.0 11.0 0.00 0.04 0.00 60 1016.7
20220525154100 65 100 7.0 10.0 0.00 0.04 0.00 60 1016.6
20220525153600 65 100 8.0 12.0 0.00 0.04 0.00 61 1016.6
20220525153059 64 35 6.0 10.0 0.00 0.05 0.00 65 1016.6
20220525152602 64 95 6.0 11.0 0.00 0.05 0.00 64 1016.6
20220525152059 65 79 6.0 11.0 0.00 0.06 0.00 62 1016.7
20220525151601 65 69 5.0 10.0 0.00 0.06 0.00 65 1016.7
20220525151106 64 76 7.0 8.0 0.00 0.07 0.00 65 1016.8
20220525150602 64 11 2.0 7.0 0.00 0.07 0.00 65 1016.7
20220525150100 64 89 4.0 9.0 0.00 0.07 0.00 65 1016.7
20220525145600 64 125 6.0 11.0 0.00 0.07 0.00 65 1016.8
20220525145103 64 91 7.0 11.0 0.00 0.07 0.00 66 1016.8
20220525144602 64 78 5.0 10.0 0.00 0.07 0.00 65 1016.8
20220525144103 65 68 1.0 9.0 0.00 0.08 0.00 66 1016.8
20220525143559 65 173 6.0 10.0 0.00 0.08 0.00 65 1016.9
20220525143059 66 81 4.0 5.0 0.00 0.07 0.00 61 1016.9
20220525142602 66 73 1.0 7.0 0.00 0.07 0.00 62 1016.9
20220525142059 65 166 5.0 7.0 0.00 0.07 0.00 64 1017.0
20220525141600 65 146 3.0 8.0 0.00 0.07 0.00 64 1017.0
20220525141100 64 85 6.0 9.0 0.00 0.07 0.00 63 1017.0
20220525140600 64 93 2.0 10.0 0.00 0.07 0.00 64 1017.1
20220525140102 64 189 1.0 7.0 0.00 0.08 0.00 63 1017.1
20220525135602 63 68 5.0 10.0 0.00 0.08 0.00 62 1017.1
20220525135059 64 166 8.0 9.0 0.00 0.08 0.00 65 1017.1
20220525134559 64 137 6.0 11.0 0.00 0.09 0.00 63 1017.2
20220525134102 64 98 1.0 7.0 0.00 0.09 0.00 64 1017.2
20220525133550 63 156 2.0 10.0 0.00 0.09 0.00 64 1017.3
20220525133047 63 153 3.0 13.0 0.00 0.09 0.00 67 1017.4
20220525132521 62 122 6.0 10.0 0.00 0.06 0.00 70 1017.3
20220525132021 62 104 7.0 12.0 0.00 0.06 0.00 70 1017.3
20220525131522 62 84 5.0 8.0 0.00 0.06 0.00 72 1017.4
20220525131021 62 100 7.0 11.0 0.00 0.07 0.00 72 1017.4
20220525130524 62 214 2.0 8.0 0.00 0.07 0.00 76 1017.4
20220525130024 61 70 2.0 8.0 0.00 0.07 0.00 77 1017.4
20220525125521 60 114 6.0 7.0 0.00 0.07 0.00 81 1017.4
20220525125021 60 162 1.0 7.0 0.00 0.07 0.00 82 1017.4
20220525124521 59 91 2.0 7.0 0.00 0.07 0.00 85 1017.4
20220525124025 59 72 1.0 7.0 0.00 0.07 0.00 85 1017.4
20220525123521 59 72 5.0 6.0 0.00 0.07 0.00 86 1017.4
20220525123021 58 127 1.0 4.0 0.00 0.07 0.00 86 1017.4
20220525122521 58 149 4.0 5.0 0.00 0.07 0.00 86 1017.4
20220525122024 58 219 0.0 3.0 0.00 0.07 0.00 87 1017.5
20220525121521 58 240 1.0 4.0 0.00 0.07 0.00 86 1017.5
20220525121021 58 224 0.0 6.0 0.00 0.07 0.00 86 1017.5
20220525120527 58 230 0.0 7.0 0.00 0.07 0.00 85 1017.5
20220525120021 58 259 5.0 6.0 0.00 0.07 0.00 85 1017.5
20220525115524 58 242 4.0 6.0 0.00 0.07 0.00 86 1017.5
20220525115023 58 180 2.0 6.0 0.00 0.07 0.00 86 1017.5
20220525114523 58 194 5.0 7.0 0.00 0.07 0.00 87 1017.5
20220525114021 57 222 3.0 8.0 0.00 0.07 0.00 87 1017.5
20220525113521 57 174 7.0 7.0 0.00 0.07 0.00 87 1017.4
20220525113021 57 174 0.0 8.0 0.00 0.07 0.00 88 1017.3
20220525112527 57 206 4.0 7.0 0.00 0.07 0.00 87 1017.3
20220525112021 58 208 2.0 5.0 0.00 0.07 0.00 89 1017.1
20220525111521 57 206 3.0 5.0 0.00 0.07 0.00 88 1017.1
20220525111023 57 257 4.0 6.0 0.00 0.07 0.00 88 1017.0
20220525110527 57 245 2.0 4.0 0.00 0.07 0.00 88 1017.1
20220525110024 57 254 3.0 4.0 0.00 0.07 0.00 88 1017.0
20220525105523 57 255 4.0 7.0 0.00 0.07 0.00 88 1016.9
20220525105024 57 225 3.0 6.0 0.00 0.07 0.00 89 1017.0
20220525104521 56 224 2.0 7.0 0.00 0.07 0.00 88 1017.1
20220525104021 56 232 1.0 7.0 0.00 0.07 0.00 88 1017.0
20220525103527 56 225 0.0 6.0 0.00 0.07 0.00 89 1017.1
20220525103021 56 232 2.0 8.0 0.00 0.07 0.00 88 1017.1
20220525102521 56 244 2.0 8.0 0.00 0.07 0.00 88 1017.1
20220525102021 55 207 5.0 9.0 0.00 0.07 0.00 88 1017.1
20220525101521 55 197 7.0 8.0 0.00 0.07 0.00 89 1017.2
20220525101022 55 224 3.0 9.0 0.00 0.07 0.00 89 1017.1
20220525100521 55 200 5.0 10.0 0.00 0.07 0.00 89 1017.0
20220525100024 56 258 4.0 13.0 0.00 0.07 0.00 89 1017.0
20220525095525 56 210 9.0 9.0 0.00 0.07 0.00 89 1017.0
20220525095021 56 169 4.0 11.0 0.00 0.07 0.00 89 1016.9
20220525094521 56 248 6.0 11.0 0.00 0.07 0.00 89 1016.9
20220525094021 56 251 4.0 12.0 0.00 0.07 0.00 88 1016.9
20220525093524 56 231 5.0 14.0 0.00 0.07 0.00 87 1016.9
20220525093021 56 196 8.0 10.0 0.00 0.07 0.00 86 1016.8
20220525092522 57 201 10.0 11.0 0.00 0.07 0.00 86 1016.7
20220525092021 57 197 8.0 12.0 0.00 0.07 0.00 86 1016.8
20220525091524 57 256 5.0 10.0 0.00 0.07 0.00 88 1016.7
20220525091022 57 202 5.0 10.0 0.00 0.07 0.00 87 1016.6
20220525090524 57 228 5.0 11.0 0.00 0.07 0.00 88 1016.5
20220525090021 58 287 3.0 10.0 0.00 0.07 0.00 90 1016.3
20220525085524 57 256 2.0 8.0 0.00 0.07 0.00 90 1016.2
20220525085024 57 282 3.0 10.0 0.00 0.07 0.00 91 1016.3
20220525084521 57 311 5.0 11.0 0.00 0.07 0.00 91 1016.2
20220525084021 57 224 10.0 13.0 0.00 0.07 0.00 92 1016.2
20220525083524 58 202 7.0 9.0 0.00 0.07 0.00 93 1016.2
20220525083024 58 251 6.0 9.0 0.00 0.07 0.00 93 1016.1
20220525082527 58 282 2.0 7.0 0.00 0.07 0.00 93 1016.0
20220525082022 58 277 2.0 9.0 0.00 0.07 0.00 94 1016.0
20220525081525 58 195 2.0 7.0 0.00 0.07 0.00 94 1015.9
20220525081022 58 237 7.0 7.0 0.00 0.07 0.00 94 1015.8
20220525080521 58 310 2.0 5.0 0.00 0.07 0.00 94 1015.7
20220525080021 58 205 3.0 6.0 0.00 0.07 0.00 94 1015.7
20220525075525 58 224 1.0 8.0 0.00 0.07 0.00 94 1015.4
20220525075022 58 246 2.0 7.0 0.00 0.07 0.00 94 1015.4
20220525074527 58 282 2.0 8.0 0.00 0.07 0.00 95 1015.4
20220525074021 58 227 2.0 6.0 0.00 0.07 0.00 95 1015.3
20220525073522 58 233 2.0 8.0 0.00 0.07 0.00 95 1015.2
20220525073021 58 204 5.0 7.0 0.00 0.07 0.00 95 1015.1
20220525072522 58 291 1.0 6.0 0.00 0.07 0.00 95 1015.1
20220525072021 58 255 4.0 6.0 0.00 0.07 0.00 95 1015.0
20220525071522 58 224 2.0 7.0 0.00 0.07 0.00 95 1014.9
20220525071021 58 250 4.0 7.0 0.00 0.07 0.00 95 1014.8
20220525070522 57 277 3.0 7.0 0.00 0.07 0.00 95 1014.8
20220525070025 57 251 4.0 7.0 0.00 0.07 0.00 95 1014.7
20220525065527 57 262 4.0 7.0 0.00 0.07 0.00 95 1014.7
20220525065024 57 287 2.0 6.0 0.00 0.07 0.00 95 1014.7
20220525064524 57 235 6.0 6.0 0.00 0.07 0.00 95 1014.6
20220525064023 57 239 2.0 4.0 0.00 0.07 0.00 95 1014.3
20220525063522 57 282 3.0 5.0 0.00 0.07 0.00 95 1014.1
20220525063024 57 303 4.0 4.0 0.00 0.07 0.00 95 1014.2
20220525061055 57 277 0.0 4.0 0.00 0.07 0.00 95 1014.3
20220525060558 57 202 2.0 3.0 0.00 0.07 0.00 95 1014.3
20220525060055 57 217 0.0 4.0 0.00 0.07 0.00 94 1014.1
20220525055558 57 277 0.0 3.0 0.00 0.07 0.00 94 1014.1
20220525055054 57 297 2.0 4.0 0.00 0.07 0.00 95 1014.2
20220525054555 57 250 3.0 5.0 0.00 0.07 0.00 95 1014.1
20220525054054 57 277 2.0 3.0 0.00 0.07 0.00 95 1014.0
20220525053556 57 233 1.0 3.0 0.00 0.07 0.00 94 1014.1
20220525053057 57 277 2.0 3.0 0.00 0.07 0.00 94 1013.8
20220525052557 57 316 0.0 3.0 0.00 0.07 0.00 94 1013.7
20220525052055 57 249 2.0 3.0 0.00 0.07 0.00 94 1013.6
20220525051554 57 287 3.0 5.0 0.00 0.07 0.00 94 1013.5
20220525051054 57 264 4.0 5.0 0.00 0.07 0.00 94 1013.6
20220525050100 57 271 0.0 4.0 0.00 0.07 0.00 94 1013.5
20220525045556 56 282 0.0 3.0 0.00 0.07 0.00 94 1013.5
20220525045056 56 247 2.0 4.0 0.00 0.07 0.00 94 1013.5
20220525044601 56 262 2.0 5.0 0.00 0.07 0.00 94 1013.5
20220525044057 56 229 1.0 5.0 0.00 0.07 0.00 94 1013.4
20220525043554 56 305 0.0 6.0 0.00 0.07 0.00 94 1013.3
20220525043054 56 251 5.0 5.0 0.00 0.07 0.00 93 1013.2
20220525042557 56 238 3.0 5.0 0.00 0.07 0.00 93 1013.2
20220525042057 56 253 1.0 6.0 0.00 0.07 0.00 93 1013.4
20220525041554 56 189 2.0 5.0 0.00 0.07 0.00 93 1013.4
20220525041054 56 232 1.0 5.0 0.00 0.07 0.00 93 1013.3
20220525040555 56 265 4.0 5.0 0.00 0.07 0.00 92 1013.3
20220525040056 56 243 0.0 3.0 0.00 0.07 0.00 92 1013.3
20220525035558 56 263 2.0 4.0 0.00 0.07 0.00 92 1013.2
20220525035054 56 312 2.0 4.0 0.00 0.07 0.00 92 1013.1
20220525034557 56 287 4.0 5.0 0.00 0.07 0.00 92 1013.3
20220525034100 57 246 1.0 5.0 0.00 0.07 0.00 92 1013.3
20220525033554 57 246 3.0 5.0 0.00 0.07 0.00 92 1013.4
20220525033057 57 255 2.0 4.0 0.00 0.07 0.00 92 1013.4
20220525032554 57 272 0.0 2.0 0.00 0.07 0.00 92 1013.4
20220525032056 57 277 1.0 4.0 0.00 0.07 0.00 92 1013.2
20220525031557 57 302 3.0 4.0 0.00 0.07 0.00 92 1013.2
20220525031057 57 226 3.0 6.0 0.00 0.07 0.00 91 1013.1
20220525030554 57 255 3.0 4.0 0.00 0.07 0.00 91 1013.1
20220525030054 57 287 3.0 3.0 0.00 0.07 0.00 91 1013.1
20220525025555 57 264 0.0 2.0 0.00 0.07 0.00 91 1013.0
20220525025054 57 298 2.0 3.0 0.00 0.07 0.00 91 1013.1
20220525024555 57 258 0.0 3.0 0.00 0.07 0.00 91 1013.2
20220525024054 57 216 2.0 3.0 0.00 0.07 0.00 92 1013.2
20220525023558 57 214 0.0 5.0 0.00 0.07 0.00 92 1013.1
20220525023054 57 187 3.0 3.0 0.00 0.07 0.00 92 1013.0
20220525022555 57 254 0.0 4.0 0.00 0.07 0.00 92 1013.1
20220525022057 57 133 0.0 0.0 0.00 0.07 0.00 92 1013.0
20220525021554 57 133 0.0 1.0 0.00 0.07 0.00 92 1013.0
20220525021054 57 133 0.0 2.0 0.00 0.07 0.00 92 1013.0
20220525020558 57 133 1.0 2.0 0.00 0.07 0.00 91 1013.0
20220525020054 57 143 0.0 3.0 0.00 0.07 0.00 91 1013.0
20220525015558 57 110 3.0 4.0 0.00 0.07 0.00 91 1013.1
20220525015054 57 114 0.0 4.0 0.00 0.07 0.00 91 1012.9
20220525014554 57 199 3.0 4.0 0.00 0.07 0.00 91 1012.9
20220525014054 57 210 2.0 3.0 0.00 0.07 0.00 91 1012.9
20220525013555 57 172 0.0 5.0 0.00 0.07 0.00 91 1013.0
20220525013054 57 208 5.0 5.0 0.00 0.07 0.00 91 1013.0
20220525012602 57 182 5.0 7.0 0.00 0.07 0.00 91 1013.0
20220525012103 57 199 5.0 6.0 0.00 0.07 0.00 92 1012.9
20220525011600 57 197 5.0 6.0 0.00 0.07 0.00 92 1012.8
20220525011059 57 185 3.0 8.0 0.00 0.07 0.00 92 1012.9
20220525010606 57 195 2.0 6.0 0.00 0.07 0.00 92 1012.9
20220525010100 57 175 0.0 8.0 0.00 0.07 0.00 92 1012.9
20220525005607 57 175 0.0 7.0 0.00 0.07 0.00 92 1012.9
20220525005100 57 201 4.0 6.0 0.00 0.07 0.00 92 1012.9
20220525004602 57 170 0.0 9.0 0.00 0.07 0.00 92 1013.0
20220525004100 57 168 3.0 7.0 0.00 0.07 0.00 92 1013.1
20220525003603 57 184 4.0 9.0 0.00 0.07 0.00 92 1013.1
20220525003103 57 152 9.0 9.0 0.00 0.07 0.00 92 1013.1
20220525002603 57 161 4.0 8.0 0.00 0.07 0.00 92 1013.1
20220525002100 57 143 8.0 8.0 0.00 0.07 0.00 92 1013.2
20220525001603 57 172 5.0 9.0 0.00 0.07 0.00 92 1013.1
20220525001100 57 147 7.0 8.0 0.00 0.07 0.00 92 1013.0
20220525000600 57 137 3.0 8.0 0.00 0.07 0.00 92 1013.1
20220525000101 57 151 6.0 8.0 0.00 0.07 0.00 92 1013.0
20220524235603 57 140 5.0 8.0 0.00 0.07 0.00 92 1012.9
20220524235103 57 142 6.0 7.0 0.00 0.07 0.00 92 1012.8
20220524234600 57 164 4.0 7.0 0.00 0.07 0.00 92 1012.7
20220524234103 57 148 3.0 6.0 0.00 0.07 0.00 92 1012.8
20220524233603 57 113 3.0 5.0 0.00 0.07 0.00 92 1012.8
20220524233100 57 150 1.0 4.0 0.00 0.07 0.00 92 1012.9
20220524232603 57 137 2.0 3.0 0.00 0.07 0.00 91 1012.9
20220524232101 57 86 1.0 4.0 0.00 0.07 0.00 91 1012.9
20220524231606 57 94 4.0 5.0 0.00 0.07 0.00 91 1012.8
20220524231103 57 102 3.0 6.0 0.00 0.07 0.00 91 1012.8
20220524230603 57 137 3.0 9.0 0.00 0.07 0.00 91 1012.8
20220524230106 57 160 5.0 8.0 0.00 0.07 0.00 92 1012.8
20220524225600 57 141 6.0 7.0 0.00 0.07 0.00 92 1012.7
20220524225101 57 118 2.0 6.0 0.00 0.07 0.00 92 1012.8
20220524224600 57 120 5.0 7.0 0.00 0.07 0.00 92 1012.8
20220524224101 57 137 4.0 7.0 0.00 0.07 0.00 92 1012.8
20220524223600 57 127 4.0 8.0 0.00 0.07 0.00 92 1012.9
20220524223100 57 118 5.0 10.0 0.00 0.07 0.00 92 1012.8
20220524222603 57 124 6.0 10.0 0.00 0.07 0.00 92 1012.9
20220524222100 57 100 6.0 8.0 0.00 0.07 0.00 92 1012.8